Temperature
15 15 15 15 15 14 14 14 14 14 14 14 14 14 13 13 13 13 13 13 13 13 13 12 12 12 12 12 12 12 12 12 12 12 12 12 12 12 11 11 11 11 10
15 15 15 15 14 14 14 14 13 13 13 13 13 13 13 13 13 13 13 13 13 13 12 12 12 12 11 11 11 11 11 11 11 11 11 11 11 11 11 11 11 11 10
15 14 14 14 14 14 14 14 13 13 13 13 13 13 13 13 13 13 12 12 12 12 12 12 12 12 11 11 11 11 11 11 11 11 11 11 11 10 10 10 10 10 10
14 14 14 14 14 13 13 13 13 13 13 13 13 13 13 13 13 12 12 12 12 12 12 12 12 12 11 11 11 11 10 10 10 10 10 10 10 10 10 10 10 9 9
14 14 14 14 13 13 13 13 13 13 13 12 12 12 12 12 12 12 12 12 12 12 12 12 12 11 11 11 11 11 10 10 10 10 10 10 10 9 9 9 9 9 8
14 14 14 14 13 13 13 13 13 13 13 12 12 12 12 12 12 12 12 12 12 12 12 12 12 11 11 11 11 10 10 10 10 10 9 9 9 9 9 8 8 8 8
14 14 14 14 13 13 13 13 13 13 13 12 12 12 12 12 12 12 12 12 12 12 11 11 11 11 11 11 10 10 10 10 9 9 9 9 9 8 8 8 8 7 7
14 14 14 14 13 13 13 13 13 13 12 12 11 11 11 12 12 12 12 12 11 11 11 11 11 10 10 10 10 10 10 9 9 9 9 9 8 8 8 8 7 7 7
14 14 14 13 13 13 13 13 13 12 12 12 11 11 11 12 11 11 11 11 11 10 10 10 10 10 10 9 9 9 9 9 9 9 8 8 8 8 8 7 7 7 6
14 14 13 13 13 13 13 12 12 12 12 11 11 11 10 10 10 10 10 10 10 10 9 9 9 9 9 9 9 8 8 8 8 8 8 8 8 8 7 7 7 6 6
13 13 13 13 12 12 12 12 12 11 11 11 10 10 10 9 9 9 9 9 9 9 9 8 8 8 8 8 8 8 8 8 8 8 8 8 7 7 7 7 7 6 6
13 12 12 12 12 12 11 11 11 11 11 10 10 10 9 9 9 8 8 8 8 8 8 8 8 7 7 7 7 7 7 7 7 7 7 7 7 7 7 7 6 6 6
12 12 11 11 11 11 11 11 10 10 10 10 9 9 9 9 8 8 8 7 7 7 7 7 7 7 6 6 6 6 6 6 6 6 6 6 6 6 6 6 6 5 5
11 11 11 10 10 10 10 10 9 9 9 9 9 9 8 8 8 8 7 7 6 6 6 6 6 6 6 6 5 5 5 5 5 5 5 5 5 6 5 5 5 5 4
10 10 10 9 9 9 9 9 9 8 8 8 8 8 8 8 8 7 7 6 6 5 5 5 5 5 5 5 5 5 5 5 4 4 4 4 4 4 4 4 4 4 4
9 9 9 8 8 8 8 8 8 8 8 7 7 7 7 7 7 7 6 6 5 5 4 4 4 4 4 4 4 4 4 4 4 4 4 3 3 3 3 3 3 3 3
8 8 8 7 7 7 7 7 7 7 7 7 6 6 6 6 6 6 5 5 5 4 4 4 4 3 3 3 3 3 3 3 3 3 3 3 3 2 2 2 2 2 2
7 7 7 6 6 6 6 6 6 6 6 6 5 5 5 5 5 5 5 4 4 4 3 3 3 3 3 3 2 2 2 2 2 2 2 2 2 2 2 1 1 1 1
6 6 6 5 5 5 5 5 5 5 5 5 5 4 4 4 4 4 4 4 3 3 3 3 2 2 2 2 1 1 1 1 1 1 1 1 1 1 1 1 1 0 0
5 5 5 4 4 4 4 4 4 4 4 4 4 4 4 4 3 3 3 3 3 3 2 2 1 1 1 1 0 0 0 0 0 0 0 0 0 -0 -0 -0 -0 -0 -1
4 4 4 4 3 3 3 3 3 3 3 3 3 3 3 3 3 2 2 2 2 2 1 1 1 0 -0 -0 -1 -1 -1 -1 -1 -1 -1 -1 -1 -1 -1 -1 -1 -1 -1
3 3 3 3 3 3 3 3 3 3 2 2 2 2 2 2 2 2 2 2 1 1 1 0 -0 -1 -1 -1 -1 -2 -2 -2 -3 -2 -2 -2 -2 -2 -2 -2 -2 -2 -2
2 2 2 2 2 2 2 2 2 2 2 2 2 1 1 1 1 1 1 1 1 0 0 -0 -1 -2 -2 -2 -2 -2 -2 -3 -3 -3 -2 -3 -3 -3 -3 -2 -2 -2 -2
1 1 1 1 1 1 1 1 1 1 1 1 1 1 1 0 0 0 -0 -0 -0 -0 -1 -1 -2 -2 -2 -2 -3 -3 -3 -3 -3 -3 -3 -3 -3 -3 -3 -3 -3 -3 -3
0 0 0 0 0 0 0 1 1 1 1 0 0 0 -0 -0 -0 -1 -1 -1 -1 -1 -2 -2 -2 -2 -3 -3 -3 -3 -4 -4 -4 -4 -4 -4 -4 -3 -3 -3 -3 -3 -4
-0 -0 -0 -0 -0 -0 -0 -0 -0 -0 -0 -0 -0 -1 -1 -1 -1 -1 -1 -2 -2 -2 -2 -3 -3 -3 -3 -3 -4 -4 -4 -4 -4 -5 -5 -5 -5 -5 -4 -4 -4 -4 -4
Wind_Speed
5 5 5 5 5 5 5 5 5 5 6 6 6 7 7 8 8 8 7 9 11 12 13 13 12 11 11 11 11 10 9 9 8 7 7 6 5 4 3 2 2 1 0
6 5 5 6 6 6 6 6 6 6 6 6 7 8 9 9 9 9 9 8 12 14 15 15 15 14 14 13 13 12 12 11 11 10 10 9 8 7 6 5 4 3 2
7 7 6 6 7 7 7 7 7 6 6 7 8 9 9 10 10 11 10 10 10 13 15 16 16 16 15 15 15 14 14 14 13 13 12 11 11 10 9 7 6 5 4
9 8 7 7 7 7 7 6 6 6 7 7 7 7 8 8 11 11 11 11 10 10 11 14 16 16 16 16 16 16 15 15 14 15 14 14 13 13 12 11 9 8 7
10 9 8 8 8 7 7 6 6 7 7 8 8 8 8 8 9 10 11 11 11 10 10 9 13 15 15 16 16 16 16 15 15 15 16 16 16 15 15 14 12 11 10
10 10 8 9 8 6 6 7 8 7 7 7 7 8 9 10 9 9 10 10 9 9 9 9 8 9 13 14 15 16 16 16 15 15 16 17 17 17 17 16 15 14 13
8 9 7 8 7 7 8 9 8 8 7 6 5 7 9 10 10 8 7 7 6 6 6 7 7 7 7 9 12 14 16 16 16 16 16 16 18 19 19 18 17 16 15
7 7 8 6 6 7 8 8 7 6 6 5 5 6 6 7 7 5 5 4 5 4 4 5 5 6 6 7 7 9 12 15 16 16 16 16 17 18 20 19 19 17 17
5 5 6 6 6 6 6 7 7 9 8 7 7 6 6 6 4 3 3 3 3 3 3 4 5 5 6 6 7 8 10 12 14 15 15 15 15 16 17 19 19 18 16
2 3 4 5 5 5 6 7 7 7 8 7 6 7 8 7 6 5 3 2 2 3 3 3 4 5 6 6 6 9 10 11 12 13 14 14 14 15 15 17 17 16 15
1 2 3 3 4 4 5 6 6 6 6 7 6 5 7 7 8 7 7 5 2 1 2 3 4 5 6 7 7 10 11 11 11 11 11 12 12 13 13 13 14 13 13
1 1 2 2 3 3 4 4 5 5 5 6 6 5 5 5 5 6 7 6 4 2 1 3 4 5 7 7 9 12 12 11 11 10 10 9 10 10 9 7 7 8 9
1 1 2 2 2 2 3 3 3 3 4 4 4 4 4 4 3 4 5 5 4 2 1 2 4 6 7 8 9 12 11 12 11 10 10 9 9 8 5 2 3 5 6
1 1 2 2 2 2 2 2 1 1 1 1 1 1 1 1 1 2 2 3 4 3 2 1 3 6 7 7 10 10 9 12 12 11 10 11 10 9 5 3 2 2 4
1 1 1 2 2 2 2 1 0 0 1 1 1 2 1 1 1 1 1 2 4 4 3 2 2 5 7 7 9 8 9 12 13 13 12 12 12 11 10 9 7 3 4
1 1 1 1 1 2 1 1 1 2 3 3 3 3 3 2 2 2 1 1 1 2 1 2 2 4 5 6 8 8 9 11 13 13 12 12 11 10 9 9 7 5 3
1 1 1 1 1 2 2 2 3 3 4 4 4 4 5 4 3 3 3 2 2 0 1 1 2 3 4 5 6 7 8 8 9 12 11 11 10 10 8 7 6 5 4
1 1 1 2 2 2 3 3 4 4 5 5 5 6 6 5 5 4 4 4 3 3 1 2 1 2 3 4 5 5 6 6 7 10 10 10 9 8 8 7 5 4 3
2 2 2 3 3 3 4 4 5 6 6 6 6 6 6 6 6 5 5 4 3 3 2 2 2 1 2 3 3 4 4 5 6 7 8 8 8 7 6 5 5 5 4
3 3 3 4 4 4 4 5 6 6 7 7 7 7 6 6 6 5 4 4 4 4 4 3 2 2 2 2 2 3 3 4 4 4 6 6 6 6 5 5 5 5 5
3 4 4 4 4 4 4 5 5 6 7 7 7 7 7 8 7 6 4 4 3 3 3 3 2 1 2 2 2 3 4 4 2 3 5 5 5 4 4 4 5 6 7
4 4 4 4 4 4 6 6 6 6 6 6 6 6 6 6 7 8 8 8 6 3 3 2 1 1 1 2 2 3 3 4 2 3 5 4 3 3 3 5 7 8 7
5 4 4 4 5 6 7 7 7 5 5 5 4 4 4 4 5 5 6 7 7 7 5 2 1 1 1 2 2 3 3 4 4 5 5 3 3 4 4 6 7 6 5
5 4 4 4 4 5 7 7 7 5 5 4 3 3 3 3 3 3 3 4 4 4 4 2 2 1 1 2 2 3 4 5 5 2 3 3 4 5 6 5 3 4 4
5 5 4 4 4 5 6 7 6 4 4 3 3 2 2 2 3 2 2 2 2 2 3 3 3 2 2 2 3 3 3 4 3 2 2 3 4 6 5 3 2 3 6
6 5 5 4 5 5 6 7 6 3 3 3 3 2 1 1 2 2 1 1 1 1 0 0 1 1 0 0 2 2 2 3 2 2 1 3 4 5 4 3 4 5 7
Wind_Direction
210 209 216 216 224 227 228 237 246 251 255 258 257 261 263 261 262 262 259 242 247 254 259 261 258 252 250 246 243 241 238 236 233 232 231 228 226 224 221 217 211 204 103
219 221 226 227 231 232 239 246 252 259 263 263 265 263 264 266 264 264 266 256 242 247 252 257 259 258 254 251 247 242 239 236 234 232 231 229 227 226 223 222 221 225 226
224 227 235 234 236 237 241 247 254 259 264 264 264 264 265 265 265 265 264 265 260 245 243 249 255 257 257 256 253 248 243 238 235 233 231 229 227 224 223 222 222 223 226
227 232 236 240 242 242 242 244 252 253 256 260 266 268 265 263 266 267 266 261 262 264 251 242 250 256 258 259 259 255 250 243 238 234 231 229 228 225 223 222 221 222 224
230 233 240 245 243 240 241 243 248 253 261 264 268 273 271 268 267 265 265 264 261 262 267 257 247 252 258 261 263 263 259 251 243 238 234 230 228 226 224 223 223 224 225
231 233 239 244 243 239 241 241 246 247 257 269 274 273 271 269 266 263 265 265 263 264 268 275 270 260 253 259 265 268 268 263 254 244 239 234 230 228 225 224 225 225 227
233 232 239 244 239 240 245 247 248 251 251 252 261 273 269 261 259 260 260 266 268 272 276 281 282 285 279 264 264 270 273 273 267 256 247 240 234 231 227 226 225 225 226
237 237 240 245 241 245 248 248 243 247 250 233 245 271 280 272 242 243 254 263 278 285 291 302 303 300 299 297 299 291 286 283 279 271 259 249 243 236 231 229 228 227 226
236 238 243 246 247 242 247 247 242 243 253 245 235 248 265 273 291 232 237 260 282 297 312 328 326 324 320 313 314 316 311 299 290 285 276 262 252 246 238 235 232 229 224
241 249 254 255 255 250 251 253 249 248 253 254 241 238 252 273 274 277 242 238 286 315 329 343 345 348 346 338 334 336 331 314 301 292 287 277 266 254 247 240 233 228 226
260 287 280 273 267 264 262 262 259 250 247 252 250 245 246 251 248 257 270 264 259 310 355 5 6 6 5 1 356 354 347 332 318 308 300 292 286 277 259 240 226 225 224
228 324 317 296 288 284 277 273 270 264 258 256 257 252 250 248 245 245 257 265 268 275 30 30 25 18 13 5 5 2 357 347 336 329 322 316 312 312 290 257 227 212 205
237 324 332 313 307 301 294 286 275 269 268 261 259 256 255 258 264 254 259 265 262 259 194 69 43 26 19 10 7 1 8 4 356 348 344 345 348 346 333 284 260 217 193
329 350 345 341 335 327 313 298 283 282 294 282 287 271 255 299 295 262 257 255 256 241 220 101 59 31 21 15 9 6 14 14 12 11 12 19 24 23 34 44 81 138 174
17 360 0 355 358 355 346 327 10 45 65 58 58 68 76 52 35 9 317 262 254 250 231 85 52 26 19 21 14 18 24 23 27 32 34 35 37 45 51 57 60 81 115
43 15 14 16 19 28 40 72 83 80 95 78 72 81 77 64 61 47 44 22 274 258 220 84 49 21 20 26 25 27 29 29 33 34 36 38 43 45 47 47 43 55 76
71 56 47 53 56 57 67 92 94 95 97 90 84 86 81 73 75 62 59 62 55 9 185 107 52 24 23 23 24 26 25 25 28 30 30 34 38 38 37 37 42 48 50
89 83 89 91 80 75 80 96 98 94 97 94 90 90 83 79 75 64 62 63 60 45 96 136 75 33 30 22 19 23 22 21 23 26 26 28 28 25 22 20 22 17 9
112 103 100 96 92 87 88 92 97 95 93 90 89 88 84 81 75 66 63 64 61 58 60 112 96 55 33 20 10 16 18 16 17 17 19 20 16 8 0 359 355 345 331
120 111 104 99 97 96 96 100 102 102 97 89 82 81 78 78 78 75 69 65 67 76 86 101 100 78 45 20 2 1 359 3 0 4 1 355 353 352 356 354 347 336 321
124 121 117 112 107 103 103 110 110 108 104 96 85 80 76 73 68 66 66 64 66 76 87 96 97 86 53 21 10 356 340 336 346 1 340 339 337 336 342 344 337 326 311
136 130 123 121 115 106 112 114 114 111 109 108 101 92 86 80 77 74 68 61 54 64 80 88 95 91 48 17 359 346 338 335 330 3 336 327 330 328 336 335 335 322 306
146 137 131 128 120 118 122 120 115 116 113 109 110 108 96 83 75 80 81 80 70 60 49 47 86 56 22 360 343 331 336 324 313 334 327 309 329 320 327 325 328 322 313
155 148 141 138 131 127 130 130 128 119 116 114 113 112 114 110 90 80 87 80 73 66 54 43 50 32 8 345 322 303 304 300 293 303 324 299 326 322 321 314 342 340 331
161 159 155 153 151 143 144 148 149 140 136 135 133 131 126 126 121 128 110 97 92 86 76 56 42 39 24 358 332 303 306 309 305 316 351 308 323 323 309 294 287 295 306
170 167 165 171 174 171 163 169 175 166 165 164 169 172 181 185 153 189 208 198 202 115 113 175 188 162 287 43 339 308 301 292 297 301 13 326 320 331 312 297 294 291 287
Height
1574 1574 1575 1575 1575 1576 1576 1576 1576 1576 1575 1575 1574 1574 1573 1573 1572 1571 1570 1569 1569 1568 1567 1567 1566 1565 1564 1563 1562 1561 1561 1560 1559 1558 1558 1557 1557 1556 1556 1556 1555 1555 1555
1572 1572 1573 1573 1574 1574 1574 1574 1574 1574 1573 1573 1572 1572 1571 1571 1570 1569 1568 1567 1566 1565 1564 1564 1563 1562 1561 1561 1560 1559 1558 1557 1557 1556 1556 1555 1555 1555 1554 1554 1554 1554 1554
1570 1571 1571 1572 1572 1572 1572 1572 1572 1571 1571 1570 1570 1569 1569 1568 1567 1566 1565 1564 1563 1562 1561 1561 1560 1559 1558 1558 1557 1556 1555 1555 1554 1554 1553 1553 1552 1552 1552 1552 1552 1552 1552
1568 1569 1569 1569 1570 1570 1569 1569 1569 1569 1568 1568 1567 1567 1566 1565 1564 1563 1562 1561 1560 1559 1558 1557 1556 1555 1555 1554 1553 1553 1552 1551 1551 1550 1550 1550 1549 1549 1549 1550 1550 1550 1550
1565 1566 1566 1567 1567 1567 1567 1566 1566 1566 1565 1565 1564 1563 1562 1561 1560 1559 1558 1557 1556 1555 1554 1553 1552 1551 1550 1550 1549 1549 1548 1547 1547 1546 1546 1546 1546 1546 1546 1546 1546 1547 1547
1562 1563 1563 1564 1564 1563 1563 1563 1563 1562 1561 1561 1560 1559 1558 1557 1556 1555 1554 1553 1552 1551 1550 1549 1547 1546 1546 1545 1544 1544 1544 1543 1542 1542 1541 1541 1541 1542 1542 1542 1542 1543 1544
1559 1559 1559 1560 1560 1560 1559 1559 1558 1558 1557 1557 1555 1554 1553 1552 1551 1550 1550 1549 1548 1547 1546 1544 1543 1542 1541 1540 1539 1539 1539 1538 1538 1537 1537 1536 1536 1537 1537 1538 1538 1538 1539
1555 1555 1555 1555 1555 1555 1555 1554 1554 1553 1552 1552 1552 1550 1549 1549 1546 1545 1545 1544 1544 1543 1542 1540 1539 1538 1537 1535 1534 1534 1533 1533 1533 1532 1532 1531 1531 1531 1532 1533 1533 1533 1534
1550 1550 1550 1550 1550 1550 1549 1549 1549 1548 1547 1547 1547 1547 1546 1544 1543 1542 1541 1541 1540 1539 1538 1536 1535 1533 1532 1531 1530 1529 1528 1527 1527 1527 1527 1527 1526 1526 1526 1527 1528 1529 1529
1545 1545 1545 1545 1545 1544 1544 1544 1543 1542 1542 1541 1541 1541 1541 1540 1540 1538 1537 1536 1535 1535 1533 1532 1530 1529 1527 1526 1525 1524 1523 1522 1522 1521 1521 1521 1521 1521 1520 1521 1522 1523 1524
1540 1540 1540 1539 1539 1539 1538 1538 1537 1537 1536 1536 1536 1535 1535 1534 1534 1534 1533 1533 1532 1530 1529 1527 1526 1525 1523 1522 1520 1519 1518 1517 1517 1516 1516 1516 1516 1516 1515 1515 1516 1517 1519
1535 1534 1534 1534 1533 1533 1532 1532 1532 1531 1531 1530 1530 1530 1529 1529 1529 1529 1528 1527 1527 1526 1525 1523 1522 1521 1519 1518 1516 1515 1514 1513 1512 1511 1511 1511 1510 1510 1510 1510 1510 1512 1514
1529 1529 1529 1528 1528 1527 1527 1526 1526 1525 1525 1525 1524 1524 1524 1523 1524 1523 1523 1523 1522 1522 1520 1519 1518 1517 1515 1514 1513 1511 1510 1509 1508 1507 1507 1507 1506 1506 1506 1506 1506 1507 1509
1524 1524 1524 1523 1523 1522 1522 1521 1521 1520 1520 1519 1519 1519 1518 1518 1518 1518 1518 1519 1518 1518 1517 1516 1514 1513 1512 1511 1510 1508 1507 1506 1505 1504 1503 1502 1502 1501 1501 1502 1502 1503 1504
1520 1519 1519 1518 1518 1517 1517 1516 1516 1515 1515 1515 1514 1514 1514 1513 1513 1513 1513 1514 1515 1514 1514 1512 1511 1510 1509 1508 1507 1506 1505 1504 1502 1501 1500 1500 1499 1499 1498 1499 1499 1500 1500
1515 1515 1514 1514 1513 1513 1512 1512 1511 1511 1511 1510 1510 1510 1509 1509 1509 1509 1509 1509 1509 1510 1510 1508 1507 1507 1506 1505 1504 1503 1502 1501 1500 1499 1498 1497 1497 1497 1497 1497 1496 1496 1497
1511 1510 1510 1509 1509 1508 1508 1508 1507 1507 1507 1506 1506 1506 1506 1506 1505 1505 1505 1505 1505 1506 1506 1505 1505 1504 1503 1502 1501 1500 1500 1499 1498 1497 1496 1495 1495 1494 1494 1494 1494 1494 1494
1507 1507 1506 1506 1505 1505 1504 1504 1504 1503 1503 1503 1503 1503 1503 1503 1503 1502 1502 1502 1502 1503 1503 1502 1502 1501 1501 1500 1499 1498 1497 1496 1495 1494 1493 1493 1492 1492 1491 1491 1491 1491 1491
1503 1503 1503 1502 1502 1501 1501 1501 1501 1500 1501 1501 1501 1501 1501 1501 1500 1500 1500 1500 1500 1500 1500 1500 1499 1499 1498 1497 1497 1496 1495 1494 1493 1492 1491 1490 1489 1489 1488 1488 1488 1487 1487
1500 1500 1500 1499 1499 1499 1498 1498 1498 1498 1499 1499 1499 1499 1499 1499 1499 1499 1498 1498 1498 1498 1498 1497 1497 1497 1496 1495 1495 1494 1493 1492 1490 1489 1488 1487 1486 1486 1485 1485 1484 1484 1483
1498 1497 1497 1497 1497 1497 1497 1497 1497 1497 1497 1497 1497 1497 1497 1497 1497 1497 1497 1496 1496 1496 1496 1495 1495 1495 1494 1493 1493 1492 1491 1490 1488 1487 1486 1485 1484 1483 1482 1481 1481 1480 1479
1495 1495 1495 1495 1495 1495 1495 1495 1495 1496 1495 1495 1496 1496 1496 1495 1495 1495 1495 1495 1495 1494 1494 1494 1493 1493 1492 1492 1491 1490 1489 1488 1487 1486 1484 1483 1482 1481 1480 1479 1477 1477 1476
1493 1493 1493 1493 1493 1493 1494 1494 1494 1494 1494 1494 1494 1494 1494 1494 1494 1494 1493 1493 1493 1493 1493 1493 1492 1492 1491 1490 1489 1488 1487 1486 1485 1484 1482 1481 1480 1479 1477 1476 1474 1473 1473
1490 1491 1491 1492 1492 1492 1492 1492 1492 1493 1493 1493 1493 1493 1493 1493 1493 1492 1492 1492 1491 1491 1491 1490 1490 1490 1489 1488 1487 1487 1486 1485 1483 1482 1481 1480 1478 1477 1475 1473 1471 1470 1470
1488 1489 1489 1490 1490 1490 1490 1491 1491 1491 1491 1491 1492 1492 1492 1492 1492 1491 1491 1490 1490 1490 1489 1489 1488 1488 1487 1486 1486 1485 1484 1483 1482 1481 1479 1478 1476 1474 1472 1470 1469 1468 1467
1486 1487 1487 1488 1488 1489 1489 1489 1490 1490 1490 1490 1490 1490 1490 1490 1490 1490 1489 1489 1489 1488 1488 1487 1487 1486 1485 1484 1484 1483 1482 1481 1479 1478 1476 1475 1473 1472 1470 1468 1467 1466 1464